timestamp,wind_dir_avg,wind_spd_max_dir,wind_spd_avg,wind_spd_gust,battery_voltage,lat,long
2018-11-11 00:00:00+00:00,149.0,148.0,9.3,10.88,,47.59359,-54.27349
2018-11-11 00:10:00+00:00,138.0,147.0,9.44,11.77,,47.59359,-54.27349
2018-11-11 00:20:00+00:00,136.0,135.0,8.3,9.97,,47.59359,-54.27349
2018-11-11 00:30:00+00:00,134.0,136.0,9.93,12.85,,47.59359,-54.27349
2018-11-11 00:40:00+00:00,134.0,128.0,8.3,9.85,,47.59359,-54.27349
2018-11-11 00:50:00+00:00,142.0,141.0,9.03,10.34,,47.59359,-54.27349
2018-11-11 01:00:00+00:00,138.0,135.0,9.1,10.87,,47.59359,-54.27349
2018-11-11 01:10:00+00:00,136.0,142.0,9.9,11.44,,47.59359,-54.27349
2018-11-11 01:20:00+00:00,138.0,138.0,8.3,10.77,,47.59359,-54.27349
2018-11-11 01:30:00+00:00,131.0,135.0,7.69,9.36,,47.59359,-54.27349
2018-11-11 01:40:00+00:00,126.0,130.0,7.96,10.95,,47.59359,-54.27349
2018-11-11 01:50:00+00:00,132.0,132.0,7.39,10.41,,47.59359,-54.27349
2018-11-11 02:00:00+00:00,127.0,106.0,8.27,11.66,,47.59359,-54.27349
2018-11-11 02:10:00+00:00,132.0,137.0,8.59,10.13,,47.59359,-54.27349
2018-11-11 02:20:00+00:00,143.0,140.0,6.38,7.44,,47.59359,-54.27349
2018-11-11 02:30:00+00:00,133.0,141.0,5.77,6.92,,47.59359,-54.27349
2018-11-11 02:40:00+00:00,141.0,143.0,5.75,6.79,,47.59359,-54.27349
2018-11-11 02:50:00+00:00,130.0,133.0,5.77,6.98,,47.59359,-54.27349
2018-11-11 03:00:00+00:00,140.0,148.0,5.06,6.14,,47.59359,-54.27349
2018-11-11 03:10:00+00:00,160.0,156.0,3.62,4.84,,47.59359,-54.27349
2018-11-11 03:20:00+00:00,146.0,147.0,9.77,11.65,,47.59359,-54.27349
2018-11-11 03:30:00+00:00,135.0,135.0,5.53,6.76,,47.59359,-54.27349
2018-11-11 03:40:00+00:00,143.0,145.0,6.71,8.47,,47.59359,-54.27349
2018-11-11 03:50:00+00:00,143.0,134.0,6.62,7.86,,47.59359,-54.27349
2018-11-11 04:00:00+00:00,140.0,133.0,4.9,5.68,,47.59359,-54.27349
2018-11-11 04:10:00+00:00,124.0,133.0,3.6,5.16,,47.59359,-54.27349
2018-11-11 04:20:00+00:00,104.0,97.0,1.91,2.81,,47.59359,-54.27349
2018-11-11 04:30:00+00:00,122.0,129.0,2.1,2.85,,47.59359,-54.27349
2018-11-11 04:40:00+00:00,121.0,141.0,2.41,3.93,,47.59359,-54.27349
2018-11-11 04:50:00+00:00,111.0,111.0,2.63,3.8,,47.59359,-54.27349
2018-11-11 05:00:00+00:00,104.0,116.0,2.24,3.09,,47.59359,-54.27349
2018-11-11 05:10:00+00:00,89.0,95.0,2.59,3.07,,47.59359,-54.27349
2018-11-11 05:20:00+00:00,85.0,85.0,2.5,2.86,,47.59359,-54.27349
2018-11-11 05:30:00+00:00,231.0,227.0,0.71,2.95,,47.59359,-54.27349
2018-11-11 05:40:00+00:00,348.0,342.0,1.17,1.56,,47.59359,-54.27349
2018-11-11 05:50:00+00:00,87.0,86.0,2.55,2.85,,47.59359,-54.27349
2018-11-11 06:00:00+00:00,118.0,111.0,4.42,6.5,,47.59359,-54.27349
2018-11-11 06:10:00+00:00,147.0,153.0,2.99,3.8,,47.59359,-54.27349
2018-11-11 06:20:00+00:00,132.0,132.0,2.2,2.86,,47.59359,-54.27349
2018-11-11 06:30:00+00:00,158.0,155.0,0.64,1.24,,47.59359,-54.27349
2018-11-11 06:40:00+00:00,104.0,80.0,0.99,1.42,,47.59359,-54.27349
2018-11-11 06:50:00+00:00,270.0,277.0,0.49,0.99,,47.59359,-54.27349
2018-11-11 07:00:00+00:00,63.0,56.0,1.84,2.04,,47.59359,-54.27349
2018-11-11 07:10:00+00:00,46.0,45.0,1.21,1.4,,47.59359,-54.27349
2018-11-11 07:20:00+00:00,65.0,57.0,2.01,2.22,,47.59359,-54.27349
2018-11-11 07:30:00+00:00,70.0,65.0,1.87,2.24,,47.59359,-54.27349
2018-11-11 07:40:00+00:00,72.0,67.0,1.6,1.77,,47.59359,-54.27349
2018-11-11 07:50:00+00:00,109.0,105.0,1.5,1.9,,47.59359,-54.27349
2018-11-11 08:00:00+00:00,161.0,161.0,1.32,1.55,,47.59359,-54.27349
2018-11-11 08:10:00+00:00,222.0,223.0,2.66,3.14,,47.59359,-54.27349
2018-11-11 08:20:00+00:00,232.0,234.0,6.53,7.15,,47.59359,-54.27349
2018-11-11 08:30:00+00:00,233.0,238.0,7.74,9.54,,47.59359,-54.27349
2018-11-11 08:40:00+00:00,254.0,251.0,12.48,18.08,,47.59359,-54.27349
2018-11-11 08:50:00+00:00,268.0,263.0,15.1,18.09,,47.59359,-54.27349
2018-11-11 09:00:00+00:00,264.0,268.0,15.02,17.57,,47.59359,-54.27349
2018-11-11 09:10:00+00:00,265.0,265.0,13.48,14.91,,47.59359,-54.27349
2018-11-11 09:20:00+00:00,258.0,253.0,17.42,23.01,,47.59359,-54.27349
2018-11-11 09:30:00+00:00,268.0,271.0,15.82,18.61,,47.59359,-54.27349
2018-11-11 09:40:00+00:00,269.0,270.0,17.36,25.1,,47.59359,-54.27349
2018-11-11 09:50:00+00:00,281.0,284.0,19.02,22.58,,47.59359,-54.27349
2018-11-11 10:00:00+00:00,275.0,277.0,12.83,15.04,,47.59359,-54.27349
2018-11-11 10:10:00+00:00,271.0,264.0,14.34,17.21,,47.59359,-54.27349
2018-11-11 10:20:00+00:00,277.0,291.0,12.64,15.12,,47.59359,-54.27349
2018-11-11 10:30:00+00:00,279.0,278.0,14.24,16.75,,47.59359,-54.27349
2018-11-11 10:40:00+00:00,285.0,289.0,13.24,15.05,,47.59359,-54.27349
2018-11-11 10:50:00+00:00,274.0,271.0,10.13,13.62,,47.59359,-54.27349
2018-11-11 11:00:00+00:00,272.0,276.0,13.17,16.56,,47.59359,-54.27349
2018-11-11 11:10:00+00:00,274.0,277.0,12.52,14.88,,47.59359,-54.27349
2018-11-11 11:20:00+00:00,275.0,275.0,15.01,17.84,,47.59359,-54.27349
2018-11-11 11:30:00+00:00,273.0,267.0,15.79,20.27,,47.59359,-54.27349
2018-11-11 11:40:00+00:00,274.0,276.0,14.44,17.76,,47.59359,-54.27349
2018-11-11 11:50:00+00:00,279.0,280.0,13.6,15.33,,47.59359,-54.27349
2018-11-11 12:00:00+00:00,267.0,265.0,13.42,16.6,,47.59359,-54.27349
2018-11-11 12:10:00+00:00,271.0,270.0,12.69,15.52,,47.59359,-54.27349
2018-11-11 12:20:00+00:00,269.0,258.0,12.81,14.78,,47.59359,-54.27349
2018-11-11 12:30:00+00:00,272.0,275.0,14.64,17.3,,47.59359,-54.27349
2018-11-11 12:40:00+00:00,273.0,272.0,14.49,18.07,,47.59359,-54.27349
2018-11-11 12:50:00+00:00,274.0,276.0,12.36,14.14,,47.59359,-54.27349
2018-11-11 13:00:00+00:00,266.0,266.0,14.55,17.28,,47.59359,-54.27349
2018-11-11 13:10:00+00:00,268.0,268.0,14.73,17.19,,47.59359,-54.27349
2018-11-11 13:20:00+00:00,262.0,262.0,12.91,14.77,,47.59359,-54.27349
2018-11-11 13:30:00+00:00,271.0,272.0,14.25,15.64,,47.59359,-54.27349
2018-11-11 13:40:00+00:00,268.0,272.0,13.93,16.76,,47.59359,-54.27349
2018-11-11 13:50:00+00:00,261.0,258.0,11.21,12.65,,47.59359,-54.27349
2018-11-11 14:00:00+00:00,264.0,266.0,11.78,13.38,,47.59359,-54.27349
2018-11-11 14:10:00+00:00,266.0,274.0,13.04,14.87,,47.59359,-54.27349
2018-11-11 14:20:00+00:00,261.0,260.0,14.78,17.36,,47.59359,-54.27349
2018-11-11 14:30:00+00:00,260.0,262.0,12.79,17.25,,47.59359,-54.27349
2018-11-11 14:40:00+00:00,256.0,254.0,14.17,16.38,,47.59359,-54.27349
2018-11-11 14:50:00+00:00,270.0,273.0,16.02,19.52,,47.59359,-54.27349
2018-11-11 15:00:00+00:00,265.0,264.0,17.51,20.92,,47.59359,-54.27349
2018-11-11 15:10:00+00:00,255.0,247.0,14.0,17.62,,47.59359,-54.27349
2018-11-11 15:20:00+00:00,260.0,257.0,15.71,17.29,,47.59359,-54.27349
2018-11-11 15:30:00+00:00,262.0,261.0,16.94,19.72,,47.59359,-54.27349
2018-11-11 15:40:00+00:00,267.0,270.0,15.06,16.96,,47.59359,-54.27349
2018-11-11 15:50:00+00:00,260.0,260.0,12.94,15.71,,47.59359,-54.27349
2018-11-11 16:00:00+00:00,255.0,259.0,15.82,17.53,,47.59359,-54.27349
2018-11-11 16:10:00+00:00,263.0,266.0,15.96,18.25,,47.59359,-54.27349
2018-11-11 16:20:00+00:00,269.0,269.0,14.17,16.89,,47.59359,-54.27349
2018-11-11 16:30:00+00:00,242.0,246.0,16.8,18.94,,47.59359,-54.27349
2018-11-11 16:40:00+00:00,254.0,255.0,14.37,17.12,,47.59359,-54.27349
2018-11-11 16:50:00+00:00,256.0,257.0,15.58,20.09,,47.59359,-54.27349
2018-11-11 17:00:00+00:00,265.0,272.0,15.55,21.67,,47.59359,-54.27349
2018-11-11 17:10:00+00:00,268.0,270.0,15.32,18.22,,47.59359,-54.27349
2018-11-11 17:20:00+00:00,257.0,251.0,16.66,19.73,,47.59359,-54.27349
2018-11-11 17:30:00+00:00,267.0,261.0,17.42,20.4,,47.59359,-54.27349
2018-11-11 17:40:00+00:00,270.0,275.0,16.38,20.91,,47.59359,-54.27349
2018-11-11 17:50:00+00:00,256.0,261.0,17.07,20.01,,47.59359,-54.27349
2018-11-11 18:00:00+00:00,260.0,262.0,15.62,18.23,,47.59359,-54.27349
2018-11-11 18:10:00+00:00,255.0,249.0,16.75,18.91,,47.59359,-54.27349
2018-11-11 18:20:00+00:00,261.0,268.0,16.35,18.78,,47.59359,-54.27349
2018-11-11 18:30:00+00:00,264.0,262.0,14.93,16.8,,47.59359,-54.27349
2018-11-11 18:40:00+00:00,264.0,268.0,14.3,16.36,,47.59359,-54.27349
2018-11-11 18:50:00+00:00,265.0,267.0,14.02,15.64,,47.59359,-54.27349
2018-11-11 19:00:00+00:00,270.0,268.0,16.42,18.99,,47.59359,-54.27349
2018-11-11 19:10:00+00:00,262.0,259.0,14.13,16.79,,47.59359,-54.27349
2018-11-11 19:20:00+00:00,269.0,266.0,14.87,18.37,,47.59359,-54.27349
2018-11-11 19:30:00+00:00,255.0,257.0,16.99,19.99,,47.59359,-54.27349
2018-11-11 19:40:00+00:00,253.0,260.0,14.47,17.22,,47.59359,-54.27349
2018-11-11 19:50:00+00:00,254.0,249.0,14.91,17.59,,47.59359,-54.27349
2018-11-11 20:00:00+00:00,257.0,260.0,14.01,16.59,,47.59359,-54.27349
2018-11-11 20:10:00+00:00,258.0,261.0,13.38,15.41,,47.59359,-54.27349
2018-11-11 20:20:00+00:00,261.0,268.0,12.7,14.77,,47.59359,-54.27349
2018-11-11 20:30:00+00:00,258.0,263.0,13.07,15.52,,47.59359,-54.27349
2018-11-11 20:40:00+00:00,261.0,265.0,14.38,18.0,,47.59359,-54.27349
2018-11-11 20:50:00+00:00,275.0,276.0,14.56,17.0,,47.59359,-54.27349
2018-11-11 21:00:00+00:00,267.0,269.0,12.37,14.32,,47.59359,-54.27349
2018-11-11 21:10:00+00:00,275.0,273.0,11.08,15.28,,47.59359,-54.27349
2018-11-11 21:20:00+00:00,277.0,279.0,13.41,16.02,,47.59359,-54.27349
2018-11-11 21:30:00+00:00,262.0,267.0,12.75,15.03,,47.59359,-54.27349
2018-11-11 21:40:00+00:00,260.0,260.0,14.15,15.83,,47.59359,-54.27349
2018-11-11 21:50:00+00:00,253.0,251.0,16.38,18.79,,47.59359,-54.27349
2018-11-11 22:00:00+00:00,248.0,246.0,17.27,21.75,,47.59359,-54.27349
2018-11-11 22:10:00+00:00,261.0,259.0,13.3,15.32,,47.59359,-54.27349
2018-11-11 22:20:00+00:00,261.0,269.0,16.38,18.8,,47.59359,-54.27349
2018-11-11 22:30:00+00:00,262.0,260.0,15.09,16.88,,47.59359,-54.27349
2018-11-11 22:40:00+00:00,255.0,258.0,13.03,15.35,,47.59359,-54.27349
2018-11-11 22:50:00+00:00,253.0,250.0,14.98,17.67,,47.59359,-54.27349
2018-11-11 23:00:00+00:00,265.0,266.0,12.05,13.7,,47.59359,-54.27349
2018-11-11 23:10:00+00:00,248.0,244.0,15.17,16.84,,47.59359,-54.27349
2018-11-11 23:20:00+00:00,260.0,259.0,13.93,16.61,,47.59359,-54.27349
2018-11-11 23:30:00+00:00,275.0,279.0,15.65,17.81,,47.59359,-54.27349
2018-11-11 23:40:00+00:00,268.0,270.0,12.95,14.68,,47.59359,-54.27349
2018-11-11 23:50:00+00:00,249.0,253.0,11.53,14.06,,47.59359,-54.27349
